Dewpoint
45 39 37 36 34 37 36 36 36 41 40 39 39 41 40 40 39 40 39 39 38 38 38 38 38 39 39
44 39 35 36 34 35 34 33 31 35 38 39 38 40 40 40 39 38 39 38 37 37 37 37 36 37 38
45 42 38 35 35 34 34 33 30 35 37 39 38 39 40 39 39 38 38 38 36 36 36 36 34 35 36
45 44 36 35 34 33 33 33 30 24 31 34 37 38 39 40 39 37 37 37 37 36 35 35 34 34 34
44 43 38 34 34 33 32 33 32 31 27 29 32 36 36 37 38 38 36 37 37 35 34 36 34 32 33
46 44 43 40 37 35 33 32 32 34 30 29 32 33 33 33 35 37 35 35 36 35 34 34 34 31 32
47 47 45 44 42 35 35 34 37 35 32 32 32 31 32 32 35 34 35 34 36 34 33 35 33 31 31
51 50 48 48 43 41 38 36 34 33 33 31 32 32 32 31 34 35 35 34 35 34 33 35 32 31 31
47 48 47 47 44 37 35 33 33 31 33 32 32 32 33 32 31 35 35 35 34 33 33 34 33 31 31
43 44 45 44 44 40 37 36 33 30 31 31 31 31 28 32 32 31 33 35 34 31 32 33 32 31 29
42 40 38 39 39 39 38 37 36 34 32 32 30 30 30 28 31 31 31 30 30 29 31 32 32 30 29
39 37 36 36 37 37 36 36 36 35 33 33 30 29 29 27 27 30 29 29 29 29 29 30 30 29 30
37 37 36 36 34 33 32 32 32 33 33 33 32 31 30 28 27 28 28 29 29 28 28 27 26 27 27
37 37 33 32 32 32 30 31 30 29 32 33 32 32 30 30 28 27 28 26 28 27 28 26 26 27 27
35 33 32 32 31 31 30 29 28 27 27 30 32 31 31 30 27 27 27 26 27 27 27 26 25 27 27
34 33 32 31 30 30 30 28 27 27 27 28 28 27 26 27 31 27 27 26 26 27 25 23 23 25 27
34 33 32 31 31 28 28 28 27 27 27 27 26 25 22 20 25 32 26 26 26 26 25 24 24 26 25
Lifted_Index
4 4 4 4 4 4 4 4 5 5 6 7 8 9 11 13 14 15 14 14 15 17 17 17 17 17 17
3 3 3 3 3 3 3 4 4 5 6 6 8 9 11 13 14 15 14 14 15 17 17 17 17 17 17
3 3 3 3 3 3 2 3 3 4 5 6 7 8 10 11 13 15 14 14 15 17 18 18 18 18 18
2 2 2 2 2 2 2 2 2 3 3 4 6 7 9 10 12 14 14 14 16 18 18 18 18 18 18
2 1 1 1 1 1 1 1 1 2 2 3 4 6 8 10 12 13 14 15 17 18 18 18 18 18 18
1 1 1 1 0 0 0 1 1 2 2 3 4 5 6 9 12 14 14 15 17 18 18 18 18 18 18
1 1 1 1 1 1 1 1 1 2 2 3 3 4 6 9 12 14 14 15 17 18 19 18 18 18 18
1 1 1 1 1 1 1 1 2 2 3 2 3 4 6 9 12 13 14 15 17 18 18 18 18 18 18
1 1 1 2 2 1 1 1 1 2 2 2 2 3 6 9 11 13 14 16 18 18 18 18 18 18 18
2 2 2 3 2 2 1 1 2 2 3 3 3 3 5 7 10 12 15 17 17 18 18 18 18 18 18
4 4 4 4 4 3 3 3 3 3 4 4 4 4 4 6 8 12 15 17 17 18 18 18 18 18 18
6 6 6 5 5 5 5 5 5 5 7 7 6 5 5 6 7 11 14 16 17 17 17 18 18 18 18
7 7 7 6 6 6 6 6 6 7 9 10 9 9 8 8 9 11 13 14 16 17 17 17 18 18 18
9 9 8 7 7 6 6 6 6 7 9 11 12 12 12 11 11 12 13 14 15 16 17 17 17 17 17
11 10 9 8 8 7 7 7 6 6 8 11 13 14 14 14 14 13 14 14 15 17 17 17 17 17 17
12 11 10 9 8 8 8 8 7 7 9 11 13 13 13 14 14 15 15 15 16 17 17 16 16 17 17
12 11 10 9 9 8 9 9 8 9 10 11 12 12 11 12 14 15 15 15 16 17 17 16 16 16 17